Waupaca, WI

4:15 PM CST on November 11, 2019 (GMT -0600)
Waupaca Municipal

Weather History for KPCZ - October, 2019

Change the Weather History Date:

Wednesday, October 23, 2019

  Actual Average Record
Temperature  
Mean Temperature 47 °F -  
Max Temperature 53 °F 56 °F 83 °F (1963)
Min Temperature 41 °F 37 °F 17 °F (1969)
Degree Days  
Heating Degree Days 18    
Moisture  
Dew Point 35 °F    
Average Humidity 67    
Maximum Humidity 78    
Minimum Humidity 50    
Precipitation  
Precipitation 0.00 in - - ()
Sea Level Pressure  
Sea Level Pressure 29.83 in    
Wind  
Wind Speed 11 mph (West)    
Max Wind Speed 17 mph    
Max Gust Speed 25 mph    
Visibility 10 miles    
Events      
Averages and records for this station are not official NWS values.
T = Trace of Precipitation, MM = Missing Value Source: NWS Daily Summary

Daily Weather History Graph

Daily Weather History Graph

Search for Another Location

Airport or City:

Astronomy

Oct. 23, 2019 Rise Set
Actual Time 7:21 AM CDT 5:59 PM CDT
Civil Twilight 6:51 AM CDT 6:28 PM CDT
Nautical Twilight 6:17 AM CDT 7:02 PM CDT
Astronomical Twilight 5:43 AM CDT 7:36 PM CDT
Moon 1:22 AM CDT (10/23) 4:04 PM CDT (10/23)
Length of Visible Light 11h 37m
Length of Day
10h 38m
Waning Crescent, 26% of the Moon is Illuminated
Oct 23
Waning Crescent
Oct 27
New
Nov 4
First Quarter
Nov 12
Full
Nov 19
Last Quarter

Hourly Weather History & Observations

Time (CDT) Temp. Windchill Dew Point Humidity Pressure Visibility Wind Dir Wind Speed Gust Speed Precip Events Conditions
12:15 AM 43.9 °F 36.8 °F 36.7 °F 76% 29.62 in 10.0 mi WSW 15.0 mph 25.3 mph N/A   Overcast
12:35 AM 43.7 °F 36.9 °F 36.5 °F 76% 29.63 in 10.0 mi West 13.8 mph 23.0 mph N/A   Overcast
12:55 AM 43.7 °F 37.3 °F 36.9 °F 77% 29.63 in 10.0 mi WSW 12.7 mph 20.7 mph N/A   Overcast
1:15 AM 43.7 °F 36.9 °F 36.9 °F 77% 29.63 in 10.0 mi WSW 13.8 mph 21.9 mph N/A   Overcast
1:35 AM 43.9 °F 36.8 °F 36.9 °F 76% 29.64 in 10.0 mi WSW 15.0 mph 20.7 mph N/A   Overcast
1:55 AM 44.6 °F 38.4 °F 36.5 °F 73% 29.64 in 10.0 mi WSW 12.7 mph 23.0 mph N/A   Overcast
2:35 AM 44.2 °F 37.3 °F 36.5 °F 74% 29.66 in 10.0 mi WSW 15.0 mph - N/A   Mostly Cloudy
2:55 AM 44.6 °F 37.8 °F 36.3 °F 73% 29.66 in 10.0 mi WSW 15.0 mph 20.7 mph N/A   Overcast
3:15 AM 44.6 °F 37.8 °F 35.8 °F 71% 29.66 in 10.0 mi WSW 15.0 mph 21.9 mph N/A   Overcast
3:35 AM 44.2 °F 38.4 °F 36.5 °F 74% 29.67 in 10.0 mi West 11.5 mph 18.4 mph N/A   Overcast
3:55 AM 43.0 °F 36.8 °F 35.2 °F 74% 29.67 in 10.0 mi West 11.5 mph 18.4 mph N/A   Overcast
4:15 AM 42.8 °F 37.5 °F 36.1 °F 77% 29.68 in 10.0 mi WSW 9.2 mph - N/A   Overcast
4:35 AM 43.2 °F 38.4 °F 36.5 °F 77% 29.69 in 10.0 mi WSW 8.1 mph - N/A   Overcast
4:55 AM 43.2 °F 39.7 °F 36.9 °F 78% 29.69 in 10.0 mi WSW 5.8 mph - N/A   Overcast
5:15 AM 43.7 °F 38.1 °F 36.3 °F 75% 29.70 in 10.0 mi WSW 10.4 mph - N/A   Overcast
5:35 AM 44.4 °F 38.2 °F 34.5 °F 68% 29.71 in 10.0 mi WSW 12.7 mph - N/A   Overcast
6:15 AM 44.1 °F 38.6 °F 35.6 °F 72% 29.73 in 10.0 mi WSW 10.4 mph - N/A   Overcast
6:35 AM 43.9 °F 37.5 °F 35.1 °F 71% 29.73 in 10.0 mi WSW 12.7 mph - N/A   Overcast
6:55 AM 43.9 °F 37.9 °F 34.9 °F 71% 29.74 in 10.0 mi WSW 11.5 mph 17.3 mph N/A   Overcast
7:15 AM 43.7 °F 38.1 °F 34.7 °F 71% 29.74 in 10.0 mi WSW 10.4 mph - N/A   Overcast
7:35 AM 43.7 °F 37.3 °F 34.7 °F 71% 29.75 in 10.0 mi WSW 12.7 mph - N/A   Overcast
7:55 AM 43.3 °F 37.2 °F 34.9 °F 72% 29.76 in 10.0 mi WSW 11.5 mph 16.1 mph N/A   Overcast
8:35 AM 43.3 °F 37.2 °F 34.9 °F 72% 29.78 in 10.0 mi WSW 11.5 mph - N/A   Overcast
8:55 AM 43.7 °F 37.3 °F 35.2 °F 72% 29.79 in 10.0 mi SW 12.7 mph - N/A   Overcast
9:15 AM 43.7 °F 36.0 °F 35.1 °F 72% 29.81 in 10.0 mi WSW 17.3 mph 21.9 mph N/A   Overcast
9:35 AM 43.5 °F 37.1 °F 34.5 °F 71% 29.81 in 10.0 mi WSW 12.7 mph 20.7 mph N/A   Overcast
9:55 AM 45.0 °F 39.3 °F 35.2 °F 69% 29.82 in 10.0 mi SW 11.5 mph - N/A   Mostly Cloudy
10:15 AM 45.1 °F 38.4 °F 34.3 °F 66% 29.83 in 10.0 mi WSW 15.0 mph 21.9 mph N/A   Scattered Clouds
10:35 AM 45.1 °F 39.9 °F 34.3 °F 66% 29.84 in 10.0 mi WSW 10.4 mph 18.4 mph N/A   Mostly Cloudy
10:55 AM 44.6 °F 38.1 °F 34.0 °F 66% 29.85 in 10.0 mi WSW 13.8 mph 23.0 mph N/A   Overcast
11:15 AM 45.0 °F 38.5 °F 34.2 °F 66% 29.85 in 10.0 mi WSW 13.8 mph 20.7 mph N/A   Overcast
11:35 AM 45.5 °F 39.6 °F 34.3 °F 65% 29.85 in 10.0 mi WSW 12.7 mph 17.3 mph N/A   Overcast
11:55 AM 46.6 °F - 34.3 °F 62% 29.86 in 10.0 mi West 10.4 mph - N/A   Overcast
12:15 PM 48.2 °F - 35.1 °F 60% 29.86 in 10.0 mi WSW 8.1 mph 12.7 mph N/A   Mostly Cloudy
12:35 PM 46.4 °F 41.1 °F 34.0 °F 62% 29.87 in 10.0 mi West 11.5 mph 17.3 mph N/A   Scattered Clouds
12:55 PM 49.5 °F - 34.5 °F 56% 29.87 in 10.0 mi West 10.4 mph - N/A   Scattered Clouds
1:15 PM 50.0 °F - 35.2 °F 57% 29.86 in 10.0 mi West 10.4 mph 17.3 mph N/A   Clear
1:35 PM 50.4 °F - 34.3 °F 54% 29.87 in 10.0 mi West 11.5 mph 16.1 mph N/A   Clear
1:55 PM 51.8 °F - 35.4 °F 54% 29.85 in 10.0 mi West 10.4 mph - N/A   Scattered Clouds
2:15 PM 51.6 °F - 34.5 °F 52% 29.85 in 10.0 mi West 11.5 mph 17.3 mph N/A   Scattered Clouds
2:35 PM 52.0 °F - 35.1 °F 53% 29.85 in 10.0 mi WSW 9.2 mph - N/A   Clear
2:55 PM 52.7 °F - 34.7 °F 50% 29.85 in 10.0 mi West 8.1 mph 16.1 mph N/A   Clear
3:15 PM 52.0 °F - 34.7 °F 52% 29.85 in 10.0 mi SW 8.1 mph - N/A   Scattered Clouds
3:35 PM 52.2 °F - 35.8 °F 54% 29.87 in 10.0 mi West 8.1 mph - N/A   Scattered Clouds
3:55 PM 53.6 °F - 35.1 °F 50% 29.87 in 10.0 mi WSW 5.8 mph - N/A   Scattered Clouds
4:15 PM 51.8 °F - 34.9 °F 53% 29.88 in 10.0 mi SW 9.2 mph - N/A   Scattered Clouds
4:35 PM 51.1 °F - 34.7 °F 54% 29.88 in 10.0 mi West 6.9 mph - N/A   Clear
4:55 PM 50.4 °F - 34.0 °F 53% 29.89 in 10.0 mi West 3.5 mph - N/A   Clear
5:15 PM 50.0 °F - 34.5 °F 55% 29.90 in 10.0 mi West 5.8 mph - N/A   Mostly Cloudy
5:35 PM 50.0 °F - 34.5 °F 55% 29.90 in 10.0 mi West 3.5 mph - N/A   Overcast
5:55 PM 49.1 °F - 34.9 °F 58% 29.92 in 10.0 mi West 3.5 mph - N/A   Overcast
6:15 PM 48.4 °F - 35.6 °F 61% 29.93 in 10.0 mi WNW 3.5 mph - N/A   Overcast
6:35 PM 48.2 °F - 36.0 °F 63% 29.94 in 10.0 mi NW 5.8 mph - N/A   Overcast
6:55 PM 47.5 °F - 36.3 °F 65% 29.95 in 10.0 mi NW 3.5 mph - N/A   Overcast
7:15 PM 46.8 °F - 36.7 °F 68% 29.96 in 10.0 mi Calm Calm - N/A   Overcast
7:35 PM 46.4 °F 43.5 °F 36.3 °F 68% 29.97 in 10.0 mi NW 5.8 mph - N/A   Overcast
7:55 PM 46.0 °F 43.1 °F 36.0 °F 68% 29.99 in 10.0 mi NW 5.8 mph - N/A   Overcast
8:15 PM 45.5 °F 42.5 °F 35.6 °F 68% 29.99 in 10.0 mi NNW 5.8 mph - N/A   Overcast
8:35 PM 45.0 °F 42.6 °F 35.1 °F 68% 29.99 in 10.0 mi NW 4.6 mph - N/A   Scattered Clouds
8:55 PM 44.6 °F 42.2 °F 35.1 °F 69% 30.00 in 10.0 mi WNW 4.6 mph - N/A   Mostly Cloudy
9:15 PM 44.6 °F - 34.7 °F 68% 30.00 in 10.0 mi Calm Calm - N/A   Overcast
9:55 PM 44.1 °F 41.5 °F 34.7 °F 70% 30.01 in 10.0 mi NW 4.6 mph - N/A   Mostly Cloudy
10:15 PM 43.5 °F 40.9 °F 34.7 °F 71% 30.01 in 10.0 mi NW 4.6 mph - N/A   Mostly Cloudy
10:35 PM 43.2 °F 41.5 °F 34.3 °F 71% 30.01 in 10.0 mi West 3.5 mph - N/A   Scattered Clouds
10:55 PM 42.4 °F 40.7 °F 34.2 °F 72% 30.02 in 10.0 mi West 3.5 mph - N/A   Scattered Clouds
11:15 PM 42.6 °F 40.9 °F 34.2 °F 72% 30.02 in 10.0 mi WNW 3.5 mph - N/A   Scattered Clouds
11:35 PM 41.9 °F 40.0 °F 34.2 °F 74% 30.02 in 10.0 mi WNW 3.5 mph - N/A   Scattered Clouds
11:55 PM 41.2 °F 39.2 °F 34.0 °F 76% 30.03 in 10.0 mi West 3.5 mph - N/A   Scattered Clouds